Winter Haven, FL

10:48 AM EST on January 24, 2017 (GMT -0500)
Winter Haven's-Gilbert

Weather History for KGIF - February, 2013

Change the Weather History Date:

Thursday, February 28, 2013

  Actual Average Record
Temperature  
Mean Temperature 64 °F -  
Max Temperature 73 °F 77 °F 89 °F (1981)
Min Temperature 54 °F 51 °F 32 °F (1968)
Degree Days  
Heating Degree Days 2    
Growing Degree Days 14 (Base 50)    
Moisture  
Dew Point 49 °F    
Average Humidity 66    
Maximum Humidity 90    
Minimum Humidity 35    
Precipitation  
Precipitation 0.00 in - - ()
Sea Level Pressure  
Sea Level Pressure 29.98 in    
Wind  
Wind Speed 7 mph (WNW)    
Max Wind Speed 14 mph    
Max Gust Speed 26 mph    
Visibility 10 miles    
Events      
Averages and records for this station are not official NWS values.
T = Trace of Precipitation, MM = Missing Value Source: NWS Daily Summary

Daily Weather History Graph

Daily Weather History Graph

Search for Another Location

Airport or City:

Trip Planner

Search our weather history database for the weather conditions in past years. The results will help you decide how hot, cold, wet, or windy it might be!

Date:

Astronomy

Feb. 28, 2013 Rise Set
Actual Time 6:52 AM EST 6:26 PM EST
Civil Twilight 6:28 AM EST 6:50 PM EST
Nautical Twilight 6:01 AM EST 7:17 PM EST
Astronomical Twilight 5:34 AM EST 7:44 PM EST
Moon 9:29 PM EST (2/28) 8:20 AM EST (2/28)
Length of Visible Light 12h 21m
Length of Day
11h 34m
Waning Gibbous, 91% of the Moon is Illuminated
Feb 28
Waning Gibbous
Mar 4
Last Quarter
Mar 11
New
Mar 19
First Quarter
Mar 27
Full

Hourly Weather History & Observations

Time (EST) Temp. Dew Point Humidity Pressure Visibility Wind Dir Wind Speed Gust Speed Precip Events Conditions
12:53 AM 55.0 °F 50.0 °F 83% 30.00 in 10.0 mi NW 6.9 mph - N/A   Clear
1:53 AM 55.0 °F 48.9 °F 80% 29.98 in 10.0 mi WNW 4.6 mph - N/A   Clear
2:53 AM 55.0 °F 48.9 °F 80% 29.98 in 10.0 mi WNW 5.8 mph - N/A   Clear
3:53 AM 54.0 °F 48.9 °F 83% 29.96 in 10.0 mi West 4.6 mph - N/A   Clear
4:53 AM 54.0 °F 50.0 °F 86% 29.96 in 10.0 mi Calm Calm - N/A   Clear
5:53 AM 54.0 °F 51.1 °F 90% 29.99 in 10.0 mi West 3.5 mph - N/A   Clear
6:53 AM 54.0 °F 50.0 °F 86% 29.99 in 10.0 mi NW 4.6 mph - N/A   Scattered Clouds
7:53 AM 55.0 °F 51.1 °F 86% 30.01 in 10.0 mi NW 3.5 mph - N/A   Scattered Clouds
8:53 AM 57.9 °F 51.1 °F 78% 30.03 in 10.0 mi NNW 5.8 mph - N/A   Clear
9:53 AM 63.0 °F 50.0 °F 63% 30.03 in 10.0 mi NW 10.4 mph - N/A   Clear
10:53 AM 68.0 °F 48.9 °F 50% 30.02 in 10.0 mi Variable 6.9 mph - N/A   Clear
11:53 AM 71.1 °F 48.0 °F 44% 30.00 in 10.0 mi WNW 12.7 mph 20.7 mph N/A   Clear
12:53 PM 72.0 °F 48.9 °F 44% 29.97 in 10.0 mi West 11.5 mph 17.3 mph N/A   Scattered Clouds
1:53 PM 73.9 °F 48.0 °F 40% 29.94 in 10.0 mi WNW 8.1 mph - N/A   Scattered Clouds
2:53 PM 73.9 °F 46.9 °F 38% 29.93 in 10.0 mi West 13.8 mph 23.0 mph N/A   Scattered Clouds
4:53 PM 71.1 °F 42.1 °F 35% 29.92 in 10.0 mi WNW 13.8 mph 26.5 mph N/A   Clear
5:53 PM 68.0 °F 44.1 °F 42% 29.94 in 10.0 mi WNW 13.8 mph - N/A   Clear
7:53 PM 63.0 °F 48.0 °F 58% 29.97 in 10.0 mi WNW 13.8 mph - N/A   Clear
8:53 PM 60.1 °F 50.0 °F 69% 29.97 in 10.0 mi WNW 9.2 mph - N/A   Clear
9:53 PM 57.9 °F 48.9 °F 72% 29.98 in 10.0 mi West 6.9 mph - N/A   Clear
10:53 PM 57.0 °F 48.9 °F 74% 29.98 in 10.0 mi WNW 8.1 mph - N/A   Clear
11:53 PM 55.9 °F 46.9 °F 72% 29.98 in 10.0 mi WNW 9.2 mph - N/A   Clear